• în Republica Moldova
  • Lista ţărilor
  • Pe 7 zile
  • Temperatura apei
  • Hartă satelitară
  • Meteo pe hartă
  • Widget-uri
  • user-avatar
    Intrare

    Meteo pe oră la Graz

    Astăzi, 17 Ianuarie, Marţi

    Timp Temperatura Precipitaţii Vânt Presiune Umiditate
    00:00 -7°C° 0 mm 2 m/s 727 mmHg 93%
    01:00 -8°C° 0 mm 2 m/s 727 mmHg 93%
    02:00 -9°C° 0 mm 3 m/s 727 mmHg 93%
    03:00 -9°C° 0 mm 3 m/s 727 mmHg 93%
    04:00 -8°C° 0 mm 3 m/s 727 mmHg 93%
    05:00 -8°C° 0 mm 3 m/s 728 mmHg 92%
    06:00 -8°C° 0 mm 3 m/s 728 mmHg 92%
    07:00 -8°C° 0 mm 3 m/s 728 mmHg 92%
    08:00 -8°C° 0 mm 3 m/s 729 mmHg 90%
    09:00 -7°C° 0 mm 3 m/s 729 mmHg 89%
    10:00 -6°C° 0 mm 3 m/s 730 mmHg 87%
    11:00 -5°C° 0 mm 3 m/s 730 mmHg 86%
    12:00 -5°C° 0 mm 3 m/s 730 mmHg 84%
    13:00 -4°C° 0 mm 3 m/s 730 mmHg 83%
    14:00 -5°C° 0 mm 3 m/s 730 mmHg 85%
    15:00 -5°C° 0 mm 3 m/s 730 mmHg 88%
    16:00 -6°C° 0 mm 3 m/s 731 mmHg 90%
    17:00 -7°C° 0 mm 3 m/s 731 mmHg 91%
    18:00 -7°C° 0 mm 3 m/s 731 mmHg 92%
    19:00 -8°C° 0 mm 3 m/s 732 mmHg 93%
    20:00 -8°C° 0 mm 3 m/s 732 mmHg 92%
    21:00 -8°C° 0 mm 2 m/s 732 mmHg 92%
    22:00 -8°C° 0 mm 2 m/s 733 mmHg 92%
    23:00 -8°C° 0 mm 2 m/s 733 mmHg 92%

    Mâine, 18 Ianuarie, Miercuri

    Timp Temperatura Precipitaţii Vânt Presiune Umiditate
    00:00 -8°C° 0 mm 2 m/s 733 mmHg 92%
    01:00 -9°C° 0 mm 2 m/s 733 mmHg 92%
    02:00 -9°C° 0 mm 2 m/s 733 mmHg 92%
    03:00 -9°C° 0 mm 2 m/s 733 mmHg 92%
    04:00 -9°C° 0 mm 2 m/s 733 mmHg 92%
    05:00 -9°C° 0 mm 2 m/s 733 mmHg 92%
    06:00 -9°C° 0 mm 2 m/s 733 mmHg 92%
    07:00 -9°C° 0 mm 2 m/s 734 mmHg 92%
    08:00 -8°C° 0 mm 2 m/s 734 mmHg 90%
    09:00 -7°C° 0 mm 2 m/s 734 mmHg 89%
    10:00 -6°C° 0 mm 2 m/s 735 mmHg 87%
    11:00 -5°C° 0 mm 2 m/s 735 mmHg 85%
    12:00 -4°C° 0 mm 2 m/s 734 mmHg 83%
    13:00 -4°C° 0 mm 2 m/s 734 mmHg 82%
    14:00 -4°C° 0 mm 2 m/s 734 mmHg 85%
    15:00 -5°C° 0 mm 2 m/s 734 mmHg 88%
    16:00 -6°C° 0 mm 2 m/s 734 mmHg 92%
    17:00 -7°C° 0 mm 2 m/s 734 mmHg 93%
    18:00 -8°C° 0 mm 2 m/s 734 mmHg 94%
    19:00 -9°C° 0 mm 2 m/s 735 mmHg 94%
    20:00 -9°C° 0 mm 2 m/s 735 mmHg 94%
    21:00 -10°C° 0 mm 2 m/s 735 mmHg 94%
    22:00 -10°C° 0 mm 1 m/s 735 mmHg 93%
    23:00 -10°C° 0 mm 1 m/s 735 mmHg 92%

    Poimâine, 19 Ianuarie, Joi

    Timp Temperatura Precipitaţii Vânt Presiune Umiditate
    00:00 -12°C° 0 mm 2 m/s 735 mmHg 92%
    01:00 -12°C° 0 mm 2 m/s 735 mmHg 91%
    02:00 -10°C° 0 mm 1 m/s 735 mmHg 91%
    03:00 -10°C° 0 mm 1 m/s 735 mmHg 91%
    04:00 -11°C° 0 mm 1 m/s 735 mmHg 91%
    05:00 -11°C° 0 mm 1 m/s 735 mmHg 92%
    06:00 -11°C° 0 mm 1 m/s 735 mmHg 92%
    07:00 -11°C° 0 mm 1 m/s 735 mmHg 92%
    08:00 -9°C° 0 mm 1 m/s 735 mmHg 89%
    09:00 -7°C° 0 mm 1 m/s 736 mmHg 86%
    10:00 -4°C° 0 mm 1 m/s 736 mmHg 83%
    11:00 -3°C° 0 mm 1 m/s 736 mmHg 81%
    12:00 -2°C° 0 mm 1 m/s 736 mmHg 80%
    13:00 -1°C° 0 mm 1 m/s 735 mmHg 78%
    14:00 -2°C° 0 mm 1 m/s 735 mmHg 83%
    15:00 -3°C° 0 mm 1 m/s 735 mmHg 87%
    16:00 -6°C° 0 mm 1 m/s 735 mmHg 92%
    17:00 -7°C° 0 mm 1 m/s 735 mmHg 93%
    18:00 -9°C° 0 mm 1 m/s 735 mmHg 95%
    19:00 -10°C° 0 mm 1 m/s 735 mmHg 96%
    20:00 -10°C° 0 mm 1 m/s 735 mmHg 96%
    21:00 -10°C° 0 mm 1 m/s 735 mmHg 96%
    22:00 -10°C° 0 mm 1 m/s 735 mmHg 96%
    23:00 -10°C° 0 mm 1 m/s 735 mmHg 95%

    20 Ianuarie, Vineri

    Timp Temperatura Precipitaţii Vânt Presiune Umiditate
    00:00 -10°C° 0 mm 1 m/s 735 mmHg 95%
    01:00 -10°C° 0 mm 1 m/s 735 mmHg 94%
    02:00 -10°C° 0 mm 1 m/s 734 mmHg 94%
    03:00 -10°C° 0 mm 1 m/s 734 mmHg 93%
    04:00 -9°C° 0 mm 1 m/s 734 mmHg 93%
    05:00 -9°C° 0 mm 1 m/s 734 mmHg 93%
    06:00 -9°C° 0 mm 1 m/s 734 mmHg 93%
    07:00 -9°C° 0 mm 1 m/s 734 mmHg 93%
    08:00 -7°C° 0 mm 1 m/s 734 mmHg 91%
    09:00 -6°C° 0 mm 1 m/s 734 mmHg 88%
    10:00 -3°C° 0 mm 1 m/s 735 mmHg 85%
    11:00 -2°C° 0 mm 1 m/s 734 mmHg 86%
    12:00 -1°C° 0 mm 1 m/s 734 mmHg 86%
    13:00 -1°C° 0 mm 1 m/s 734 mmHg 86%
    14:00 -1°C° 0 mm 1 m/s 734 mmHg 89%
    15:00 -2°C° 0 mm 1 m/s 733 mmHg 92%
    16:00 -3°C° 0 mm 1 m/s 733 mmHg 95%
    17:00 -4°C° 0 mm 1 m/s 733 mmHg 96%
    18:00 -6°C° 0 mm 1 m/s 733 mmHg 97%
    19:00 -7°C° 0 mm 1 m/s 733 mmHg 98%
    20:00 -7°C° 0 mm 1 m/s 734 mmHg 98%
    21:00 -7°C° 0 mm 1 m/s 734 mmHg 98%
    22:00 -8°C° 0 mm 1 m/s 734 mmHg 98%
    23:00 -8°C° 0 mm 1 m/s 734 mmHg 98%

    21 Ianuarie, Sâmbătă

    Timp Temperatura Precipitaţii Vânt Presiune Umiditate
    00:00 -8°C° 0 mm 0 m/s 733 mmHg 98%
    01:00 -8°C° 0 mm 0 m/s 733 mmHg 98%
    02:00 -8°C° 0 mm 0 m/s 733 mmHg 98%
    03:00 -9°C° 0 mm 0 m/s 733 mmHg 98%
    04:00 -9°C° 0 mm 0 m/s 733 mmHg 98%
    05:00 -8°C° 0 mm 1 m/s 733 mmHg 98%
    06:00 -8°C° 0 mm 1 m/s 733 mmHg 98%
    07:00 -8°C° 0 mm 1 m/s 733 mmHg 98%
    08:00 -7°C° 0 mm 1 m/s 733 mmHg 96%
    09:00 -4°C° 0 mm 1 m/s 733 mmHg 94%
    10:00 -3°C° 0 mm 1 m/s 733 mmHg 92%
    11:00 -2°C° 0 mm 1 m/s 733 mmHg 90%
    12:00 -2°C° 0 mm 1 m/s 732 mmHg 89%
    13:00 -1°C° 0 mm 1 m/s 732 mmHg 88%
    14:00 -1°C° 0 mm 1 m/s 731 mmHg 90%
    15:00 -2°C° 0 mm 1 m/s 731 mmHg 92%
    16:00 -2°C° 0 mm 1 m/s 731 mmHg 94%
    17:00 -3°C° 0 mm 1 m/s 731 mmHg 95%
    18:00 -4°C° 0 mm 1 m/s 731 mmHg 96%
    19:00 -4°C° 0 mm 1 m/s 731 mmHg 97%
    20:00 -4°C° 0 mm 1 m/s 731 mmHg 98%
    21:00 -6°C° 0 mm 1 m/s 731 mmHg 98%
    22:00 -6°C° 0 mm 1 m/s 731 mmHg 98%
    23:00 -6°C° 0 mm 1 m/s 730 mmHg 98%

    22 Ianuarie, Duminică

    Timp Temperatura Precipitaţii Vânt Presiune Umiditate
    00:00 -7°C° 0 mm 1 m/s 730 mmHg 98%
    01:00 -7°C° 0 mm 1 m/s 730 mmHg 98%
    02:00 -8°C° 0 mm 1 m/s 729 mmHg 98%
    03:00 -8°C° 0 mm 1 m/s 729 mmHg 98%
    04:00 -8°C° 0 mm 1 m/s 729 mmHg 98%
    05:00 -7°C° 0,1 mm 1 m/s 728 mmHg 98%
    06:00 -7°C° 0,1 mm 1 m/s 728 mmHg 97%
    07:00 -6°C° 0,1 mm 0 m/s 728 mmHg 97%
    08:00 -4°C° 0,2 mm 1 m/s 728 mmHg 96%
    09:00 -3°C° 0,2 mm 1 m/s 728 mmHg 94%
    10:00 -2°C° 0,2 mm 1 m/s 728 mmHg 93%
    11:00 -1°C° 0,2 mm 1 m/s 727 mmHg 92%
    12:00 -1°C° 0,2 mm 1 m/s 726 mmHg 91%
    13:00 0°C° 0,2 mm 1 m/s 725 mmHg 91%
    14:00 0°C° 0,1 mm 1 m/s 725 mmHg 92%
    15:00 -1°C° 0,1 mm 1 m/s 724 mmHg 94%
    16:00 -1°C° 0,1 mm 1 m/s 724 mmHg 96%
    17:00 -2°C° 0,3 mm 1 m/s 724 mmHg 96%
    18:00 -2°C° 0,3 mm 1 m/s 723 mmHg 97%
    19:00 -3°C° 0,3 mm 1 m/s 723 mmHg 98%
    20:00 -3°C° 0,1 mm 1 m/s 722 mmHg 98%
    21:00 -3°C° 0,1 mm 1 m/s 722 mmHg 98%
    22:00 -4°C° 0,1 mm 1 m/s 722 mmHg 98%
    23:00 -4°C° 0 mm 1 m/s 721 mmHg 98%
    Arată mai mult